Regional Weather Roundup
Issued by NWS

Home | Current Version | Previous Version | Text Only | Print | Product List | Glossary On
Versions: 1 2 3 4 5 6 7 8 9 10 11 12 13 14 15 16 17 18 19 20 21 22 23 24 25 26 27 28 29 30 31 32 33 34 35 36 37 38 39 40 41 42 43 44 45 46 47 48 49 50
000
ASUS44 KLUB 281810
RWRTX
WEST TEXAS WEATHER ROUNDUP
NATIONAL WEATHER SERVICE LUBBOCK TX
1200 PM CST SUN DEC 28 2014

NOTE: "FAIR" INDICATES FEW OR NO CLOUDS BELOW 12,000 FEET WITH NO
SIGNIFICANT WEATHER AND/OR OBSTRUCTIONS TO VISIBILITY.

TXZ004-006>008-010-012-014-016-OKZ002-281900-
TEXAS PANHANDLE/OKLAHOMA PANHANDLE

CITY           SKY/WX    TMP DP  RH WIND       PRES   REMARKS
AMARILLO       SUNNY     37  17  44 SW10      30.02F WCI  30
BORGER         SUNNY     35  18  49 SW9       30.03F WCI  28
CANADIAN       SUNNY     42  20  42 S15G21    30.05F
DALHART        SUNNY     37  23  56 S6        29.99F WCI  32
DUMAS          SUNNY     35  23  62 SW8       30.00F WCI  28
GUYMON         SUNNY     35  18  49 SE5       29.99F WCI  31
HEREFORD       SUNNY     40  15  35 W15       30.02F WCI  32
PAMPA          SUNNY     37  18  46 SW10G20   30.03F WCI  29
PERRYTON       SUNNY     35  20  53 S12       30.03F WCI  27
$$

TXZ026-029-035-045-048-281900-
SOUTHERN PANHANDLE/SOUTH PLAINS/ROLLING PLAINS

CITY           SKY/WX    TMP DP  RH WIND       PRES   REMARKS
CHILDRESS      SUNNY     45  27  49 S12       30.13F
SEMINOLE       SUNNY     43  30  60 SW13      30.16F
LUBBOCK        SUNNY     43  29  57 SW21      30.09F
PLAINVIEW      SUNNY     45  19  36 SW25      30.05F
SNYDER         SUNNY     42  26  53 SW15      30.19F
$$

TXZ052-054-060>062-072-078-127-140-154-169-281900-
PERMIAN BASIN/CONCHO VALLEY/BIG COUNTRY/EDWARDS PLATEAU

CITY           SKY/WX    TMP DP  RH WIND       PRES   REMARKS
ABILENE        SUNNY     44  23  43 SW7       30.23F
BIG SPRING     SUNNY     46  29  52 SW14      30.21F
BRADY          PTSUNNY   45  25  45 NW7       30.24F
JUNCTION       CLOUDY    39  29  67 NW5       30.26F
MIDLAND        SUNNY     44  31  60 SW15      30.18F
ODESSA         SUNNY     43  31  62 W18       30.19F
SAN ANGELO     SUNNY     46  20  35 SW8       30.25F
SONORA         SUNNY     46  23  39 W6        30.29F
SWEETWATER     SUNNY     45  21  38 S14       30.22F
WINK           SUNNY     43  33  68 SW14      30.18F
$$

TXZ055-058-074-075-080-082-281900-
FAR WEST/SOUTHWEST MOUNTAINS/TRANS PECOS

CITY           SKY/WX    TMP DP  RH WIND       PRES   REMARKS
ALPINE         SUNNY     36  31  82 SW18      30.26F WCI  25
DRYDEN           N/A     50  33  52 SW12      30.23F
EL PASO        MOSUNNY   41  27  57 SW7       30.23F
FORT STOCKTON  SUNNY     47  36  65 SW10      30.21F
MARFA          CLOUDY    36  32  87 W7        30.24F WCI  30
PECOS          SUNNY     47  33  57 SW18      30.20F
PRESIDIO       FAIR      48  33  57 SW3       30.26F
$$

TXZ014-016-019-021>030-083-281900
TEXAS TECH WEST TEXAS MESONET/TEXAS PANHANDLE/NORTHERN SOUTH PLAINS

CITY           SKY/WX    TMP DP  RH WIND       PRES   REMARKS
ABERNATHY 5ENE   N/A     43  28  56 SW20      30.08F
AMARILLO 9NNE    N/A     39  18  43 SW9       30.01F WCI  32
AMARILLO 7SSE    N/A     39  16  40 SW7       30.02F WCI  34
AMHERST 1NE      N/A     45  11  25 SW24      30.05F
BOOTLEG 11WNW    N/A     37  13  36 W17       30.01F WCI  28
CANADIAN 6E      N/A     42  19  39 S16       30.03F
CHILDRESS 2NNE   N/A     45  27  49 S17       30.12F
CLARENDON 2WSW   N/A     39  20  46 S14       30.06F WCI  31
CLAUDE 12SW      N/A     38  16  41 SW9       30.02F WCI  31
DIMMITT 2NE      N/A     39  13  35 SW20      30.02F WCI  29
FLOYDADA 2NNE    N/A     42  26  54 SW21      30.07F
FRIONA 2NE       N/A     40  10  28 W20       30.02F WCI  31
GOODLETT 3W      N/A     46  22  38 S16       30.14F
HART 3N          N/A     41  12  30 SW20      30.03F
HEREFORD 2NW     N/A     40  12  31 SW17      30.01F WCI  31
MCLEAN 1E        N/A     40  18  41 S15       30.04F WCI  31
MEMPHIS 1NE      N/A     42  25  49 S12       30.11F
MULESHOE 2SSW    N/A     43   7  22 W22       30.03F
OLTON 6S         N/A     46  12  25 SW24      30.04F
PALO DURO SP     N/A     41  15  34 SW7       30.03F
PAMPA 2E         N/A     36  19  51 S13       30.02F WCI  27
PLAINVIEW 1S     N/A     44  19  36 SW23G35   30.04F
SILVERTON 7ESE   N/A     45  18  33 SW25      30.05F
TULIA 2ENE       N/A     42  15  33 SW21      30.03F
TURKEY 2WSW      N/A     46  25  43 SW16      30.08F
UMBARGER 3NNE    N/A     38  16  42 SW15      30.01F WCI  29
$$

TXZ033>036-039>041-045>048-281900
TEXAS TECH WEST TEXAS MESONET/SOUTH PLAINS

CITY           SKY/WX    TMP DP  RH WIND       PRES   REMARKS
AIKEN 3WSW       N/A     45  22  40 SW25      30.06F
ANDREWS 2NE      N/A     43  31  62 SW13      30.16F
ANTON 6SSW       N/A     44  26  48 S20       30.07F
BROWNFIELD 2S    N/A     41  31  65 SW15      30.12F
DENVR CTY 7WNW   N/A     40  28  62 SW17      30.11F WCI  32
GAIL 2ESE        N/A     43  31  63 S12       30.16F
LAMESA 2SE       N/A     40  35  80 S12       30.16F WCI  33
LEVELLAND 4S     N/A     44  26  49 SW16      30.09F
LUBBOCK 3WNW     N/A     44  29  54 SW14      30.10F
MORTON 1ENE      N/A     45  12  26 SW23      30.06F
ODONNELL 1N      N/A     42  30  63 SW16      30.14F
PLAINS 3N        N/A     41  27  58 SW15      30.10F
RALLS 1SE        N/A     44  26  49 SW18      30.11F
REESE CENTER     N/A     43  28  56 SW15      30.09F
SEAGRAVES 1SW    N/A     43  30  60 SW15      30.12F
SEMINOLE 2NNE    N/A     43  30  59 SW9       30.13F
SLATON 2NE       N/A     45  28  52 SW16      30.11F
SNYDER 3E        N/A     44  26  49 S12       30.17F
SUNDOWN 8SW      N/A     44  25  47 SW16      30.09F
TAHOKA 3NNE      N/A     46  27  48 SW17      30.11F
WOLFFORTH 6SSW   N/A     43  31  63 SW16      30.11F
$$

TXZ031-032-036>038-042>044-281900-
TEXAS TECH WEST TEXAS MESONET/ROLLING PLAINS

CITY           SKY/WX    TMP DP  RH WIND       PRES   REMARKS
ASPERMONT 3NE    N/A     46  24  42 S13       30.18F
FLUVANNA 3WNW    N/A     41  30  64 S14       30.15F
GRAHAM 5SSW      N/A     43  30  60 SW14      30.13F
GUTHRIE 10WSW    N/A     47  27  45 S13       30.14F
HASKELL 1NW      N/A     42  27  55 S12       30.20F
JAYTON 1SSE      N/A     46  27  48 S14       30.16F
KNOX CITY 3NW    N/A     45  27  49 S13       30.20F
LK A HENRY 1NW   N/A     45  29  52 SW14      30.14F
NORTHFIELD 1S    N/A     49  24  38 SW10      30.11F
ODELL 4ENE       N/A     42  24  48 S10       30.19F
PADUCAH 10SW     N/A     46  27  48 S18       30.13F
POST 1NE         N/A     46  29  51 S13       30.13F
RRING SPRGS 3N   N/A     47  29  49 S16       30.10F
SEYMOUR 3NW      N/A     40  29  65 S8        30.22F WCI  35
SPUR 1W          N/A     44  28  51 S10       30.14F
WHITE RVR 6NE    N/A     45  29  53 S14       30.11F
$$

TXZ052-054-060>062-072-078-127-140-154-169-281900-
TEXAS TECH WEST TEXAS MESONET/PERMIAN BASIN/
CONCHO VALLEY/BIG COUNTRY/EDWARDS PLATEAU

CITY           SKY/WX    TMP DP  RH WIND       PRES   REMARKS
COYANOSA 2N      N/A     48  32  53 W8        30.21F
JUNCTION 1SSW    N/A     39  28  63 NW1       30.27F
MERTZON 3NNE     N/A     46  20  35 S5        30.24F
SAN ANGELO 7NW   N/A     46  19  32 S5        30.24F
STRLNG CT 4WSW   N/A     45  22  40 S9        30.21F
ST LAWRNCE 5SW   N/A     42  29  60 SW13      30.21F
SWEETWATR 11SW   N/A     44  20  38 SW12      30.20F
WALL 1E          N/A     45  22  40 W7        30.25F
$$

TXZ055-058-074-075-080-082-281900-
TEXAS TECH WEST TEXAS MESONET/FAR WEST/SOUTHWEST MOUNTAINS/TRANS PECOS

CITY           SKY/WX    TMP DP  RH WIND       PRES   REMARKS
PRSMN GAP BBNP   N/A     49  34  55 SW8       30.24F
GUADLPE MTN NP   N/A     39   9  29 W16       30.11F WCI  30
$$


USA.gov is the U.S. government's official web portal to all federal, state and local government web resources and services.